Home > Time Zones > World Clock > Weather > Norway > Oslo > Past weeks

Flag for Norway Weather past 2 weeks in Oslo, Norway

Now
75 °F

Mild.


Feels Like: 78 °F
Forecast: 54 / 70 °F
Wind: 6 mph from Southwest

Location: Oslo-Blindern

Current Time: Jul 31, 2014 at 2:28:42 PM

Latest Report: Jul 31, 2014 at 1:00 PM


Visibility: N/A

Pressure: 29.62 "Hg

Humidity: 42%

Dew point: 51 °F

Location of OsloLocation

Historic Weather in Oslo — Graph

°F

Oslo temperature yesterday

Maximum temperature yesterday: 79 °F (at 3:00 PM)
Minimum temperature yesterday: 63 °F (at 3:00 AM)
Average temperature yesterday: 70 °F

Past Weeks' High & Low Weather Summary

 TemperatureHumidityPressure
High90 °F (Jul 24, 2:00 PM)96% (Jul 18, 12:00 AM)30.31 "Hg (Jul 18, 12:00 AM)
Low52 °F (Jul 18, 5:00 AM)23% (Jul 23, 6:00 PM)29.57 "Hg (Jul 30, 7:00 PM)
Average72 °F62%30.02 "Hg
* Reported Jul 16 1:00 PM — Jul 31 1:00 PM, Oslo, Weather by CustomWeather, © 2014

Note: Actual official high and low records may vary slightly from our data, if they occured in-between our weather recording intervals... More about our weather records

Advertising

Oslo weather history for previous 24 hours

 ConditionsComfort  
Time TempWeatherWind HumidityBarometerVisibility
1:00 PM
Jul 31
75 °FMild.6 mph42%29.62 "HgN/A
12:00 PM74 °FMild.5 mph43%29.63 "HgN/A
11:00 AM71 °FPartly sunny.3 mph45%29.63 "Hg47 mi
10:00 AM71 °FMild.3 mph51%29.63 "HgN/A
9:00 AM69 °FMild.5 mph52%29.63 "HgN/A
8:00 AM65 °FPassing clouds.5 mph58%29.63 "Hg47 mi
7:00 AM59 °FCool.1 mph67%29.63 "HgN/A
6:00 AM56 °FCool.2 mph73%29.63 "HgN/A
5:00 AM56 °FPassing clouds.1 mph73%29.63 "Hg43 mi
4:00 AM58 °FCool.1 mph66%29.62 "HgN/A
3:00 AM58 °FCool.3 mph65%29.62 "HgN/A
2:00 AM59 °FPassing clouds.1 mph65%29.62 "Hg47 mi
1:00 AM62 °FRefreshingly cool.1 mph58%29.61 "HgN/A
12:00 AM63 °FMild.2 mph56%29.61 "HgN/A
11:00 PM
Jul 30
67 °FPassing clouds.3 mph49%29.60 "Hg43 mi
10:00 PM69 °FMild.3 mph44%29.59 "HgN/A
9:00 PM71 °FMild.5 mph52%29.57 "HgN/A
8:00 PM72 °FScattered clouds.6 mph56%29.57 "Hg43 mi
7:00 PM74 °FMild.7 mph50%29.57 "HgN/A
6:00 PM75 °FMild.8 mph47%29.57 "HgN/A
5:00 PM77 °FScattered clouds.7 mph52%29.58 "Hg43 mi
4:00 PM78 °FWarm.7 mph48%29.59 "HgN/A
3:00 PM79 °FWarm.7 mph45%29.59 "HgN/A
2:00 PM77 °FScattered clouds.2 mph52%29.60 "Hg11 mi
Weather by CustomWeather, © 2014

See weather overviewHow to use our weather pages